Regional Weather Roundup
Issued by NWS Portland, ME

Current Version | Previous Version | Text Only | Print | Product List | Glossary Off
Versions: 1 2 3 4 5 6 7 8 9 10 11 12 13 14 15 16 17 18 19 20 21 22 23 24 25 26 27 28 29 30 31 32 33 34 35 36 37 38 39 40 41 42 43 44 45 46 47 48 49 50

000
ASUS41 KGYX 222110
RWRGYX
WEATHER ROUNDUP FOR MAINE AND NEW HAMPSHIRE
NATIONAL WEATHER SERVICE GRAY ME
400 PM EST SUN JAN 22 2017

MEZ002-005-006-010-012-015-018-020-021-024-026-027-029-222200-
MAINE

CITY           SKY/WX    TMP DP  RH WIND       PRES   REMARKS
PORTLAND       CLOUDY    37  29  72 VRB5      29.94R
SANFORD        CLOUDY    35  31  85 NE8       29.91R
BAR HARBOR     CLOUDY    36  24  62 N8        29.97R
WISCASSET      CLOUDY    39  27  62 VRB3      29.95R
ROCKLAND       CLOUDY    37  28  70 NE12      29.95R
FRYEBURG       CLOUDY    35  30  82 N5        29.93R
LEWISTONAUBURN CLOUDY    37  28  70 VRB6      29.94R
AUGUSTA        CLOUDY    35  24  64 NE9       29.94R
WATERVILLE     CLOUDY    36  26  67 NE8       29.93R
BANGOR         CLOUDY    34  23  64 NE9       29.98R
GREENVILLE       N/A     29  23  78 NE10      29.91R WCI  20
MILLINOCKET    CLOUDY    31  20  63 NE9       30.01R
HOULTON        CLOUDY    29  19  66 N8        30.00R
PRESQUE ISLE   CLOUDY    28  18  66 N12       30.03R WCI  18
FRENCHVILLE    CLOUDY    26  16  65 N7        30.01R
CARIBOU        CLOUDY    29  17  61 NE7       30.01R
$$

NHZ002-005-008-009-011-012-014-222200-
NEW HAMPSHIRE

CITY           SKY/WX    TMP DP  RH WIND       PRES   REMARKS
PORTSMOUTH     CLOUDY    37  33  86 NE10      29.89R
ROCHESTER      CLOUDY    35  31  85 NE5       29.91R
NASHUA         CLOUDY    36  36 100 NE7       29.90R FOG
MANCHESTER     CLOUDY    37  32  82 NE9       29.88R
CONCORD        CLOUDY    36  31  82 NE8       29.89R
LACONIA        CLOUDY    34  32  92 E10       29.90R
PLYMOUTH       CLOUDY    36  32  87 CALM      29.89R
BERLIN         CLOUDY    34  29  82 SE5       29.88R
WHITEFIELD     CLOUDY    35  29  78 E14G22    29.84R
JAFFREY        MIX PCPN  36  34  92 NE3       29.84R FOG
KEENE          LGT RAIN  38  36  92 NE5       29.85R
LEBANON        CLOUDY    38  35  89 NE7       29.83R FOG
MT WASHINGTON  FOG       27  27 100 NW35        N/A  VSB 1/4 WCI   9
$$

VTZ005-007-008-222200-
VERMONT

CITY           SKY/WX    TMP DP  RH WIND       PRES   REMARKS
ST JOHNSBURY     N/A     39  35  86 MISG      29.83R
MONTPELIER     CLOUDY    38  36  92 CALM      29.85R
BURLINGTON     CLOUDY    35  32  88 N8        29.86R
$$

MAZ007-012-024-CTZ003-RIZ002-NYZ038-NYZ072-222200-
SOUTHERN NEW ENGLAND AND NY

CITY           SKY/WX    TMP DP  RH WIND       PRES   REMARKS
BOSTON         LGT RAIN  41  41 100 NE17      29.86R FOG
WORCESTER      FOG       37  36  96 NE13G22   29.82R VSB<1/4
NANTUCKET      CLOUDY    46  41  82 NE17G23   29.79R
PROVIDENCE     CLOUDY    47  40  76 NE10      29.81R
HARTFORD       MOCLDY    47  40  76 N10       29.78R
ALBANY         CLOUDY    42  37  82 N6        29.77S
NEW YORK CITY  LGT RAIN  45  41  86 NE12      29.71R FOG
$$

ANZ081-ANZ082-ANZ150-NHZ014-MEZ023>029-222200-
COASTAL MARINE OBSERVATIONS

STATION/POSITION TIME  TEMP    WIND        PRES    WAVE
                       AIR SEA DIR/SP/G            HT/PER
                 (UTC) (F)     (DEG/KT/KT) (MB)    (FT/S)
MOUNT DESERT ROC 2100   37                 1014.2R
MATINICUS ROCK   2000   38      50/ 16/ 18 1012.5R
ISLE OF SHOALS   2000   38      30/ 19/ 21 1011.2R
CASHES LEDGE BUO 2050   40 46   60/ 19/ 23 1012.4R   5/13
GEORGES BANK BUO 2050   41 43              1009.4R   7/12
$$

.............KEY..............
   WCI - WIND CHILL
   TC  - TEMPERATURE IN CELSIUS
   VSB - VISIBILITY IN MILES
   HX  - HEAT INDEX
   FAIR- INDICATES FEW OR NO CLOUDS BELOW 12,000 FT, WITH NO
         SIGNIFICANT WEATHER AND/OR OBSTRUCTIONS TO VISIBILITY.





USA.gov is the U.S. government's official web portal to all federal, state and local government web resources and services.